Previsão horária em Abapo

Hoje, 18 Abril, Domingo

Tempo Temperatura Precipitação Vento Pressão Humidade
00:00 +23°C° 0.2 mm 1 m/s 710 mmHg 93%
01:00 +23°C° 0.2 mm 1 m/s 710 mmHg 94%
02:00 +23°C° 0.2 mm 1 m/s 710 mmHg 95%
03:00 +22°C° 0 mm 1 m/s 710 mmHg 95%
04:00 +22°C° 0 mm 1 m/s 710 mmHg 95%
05:00 +22°C° 0 mm 1 m/s 709 mmHg 95%
06:00 +21°C° 0.1 mm 0 m/s 710 mmHg 94%
07:00 +21°C° 0.1 mm 0 m/s 711 mmHg 92%
08:00 +22°C° 0.1 mm 0 m/s 711 mmHg 91%
09:00 +24°C° 0.7 mm 0 m/s 711 mmHg 82%
10:00 +26°C° 0.7 mm 0 m/s 712 mmHg 73%
11:00 +28°C° 0.7 mm 0 m/s 712 mmHg 65%
12:00 +28°C° 0.9 mm 0 m/s 711 mmHg 65%
13:00 +28°C° 0.9 mm 0 m/s 710 mmHg 64%
14:00 +28°C° 0.9 mm 0 m/s 709 mmHg 64%
15:00 +27°C° 1.1 mm 0 m/s 709 mmHg 71%
16:00 +26°C° 1.1 mm 0 m/s 709 mmHg 77%
17:00 +24°C° 1.1 mm 0 m/s 708 mmHg 84%
18:00 +25°C° 0.3 mm 1 m/s 709 mmHg 87%
19:00 +24°C° 0.3 mm 1 m/s 709 mmHg 89%
20:00 +23°C° 0.3 mm 1 m/s 710 mmHg 92%
21:00 +23°C° 0 mm 1 m/s 710 mmHg 92%
22:00 +23°C° 0 mm 1 m/s 710 mmHg 92%
23:00 +23°C° 0 mm 1 m/s 711 mmHg 93%

Amanhã, 19 Abril, Segunda-feira

Tempo Temperatura Precipitação Vento Pressão Humidade
00:00 +23°C° 0.1 mm 1 m/s 710 mmHg 93%
01:00 +23°C° 0.1 mm 1 m/s 710 mmHg 93%
02:00 +23°C° 0.1 mm 1 m/s 710 mmHg 93%
03:00 +23°C° 0.1 mm 1 m/s 710 mmHg 93%
04:00 +22°C° 0.1 mm 1 m/s 710 mmHg 94%
05:00 +22°C° 0.1 mm 1 m/s 710 mmHg 94%
06:00 +23°C° 0.3 mm 1 m/s 711 mmHg 93%
07:00 +23°C° 0.3 mm 1 m/s 711 mmHg 93%
08:00 +21°C° 0.3 mm 0 m/s 711 mmHg 93%
09:00 +23°C° 0.9 mm 0 m/s 712 mmHg 87%
10:00 +24°C° 0.9 mm 0 m/s 712 mmHg 82%
11:00 +25°C° 0.9 mm 0 m/s 712 mmHg 77%
12:00 +29°C° 0.6 mm 1 m/s 711 mmHg 68%
13:00 +30°C° 0.6 mm 1 m/s 711 mmHg 59%
14:00 +32°C° 0.6 mm 1 m/s 710 mmHg 50%
15:00 +31°C° 0.2 mm 1 m/s 709 mmHg 56%
16:00 +29°C° 0.2 mm 1 m/s 709 mmHg 63%
17:00 +28°C° 0.2 mm 1 m/s 709 mmHg 69%
18:00 +27°C° 0 mm 1 m/s 709 mmHg 73%
19:00 +26°C° 0 mm 1 m/s 709 mmHg 77%
20:00 +25°C° 0 mm 1 m/s 710 mmHg 82%
21:00 +24°C° 0 mm 1 m/s 710 mmHg 83%
22:00 +24°C° 0 mm 1 m/s 710 mmHg 85%
23:00 +23°C° 0 mm 1 m/s 710 mmHg 86%

Depois de amanhã, 20 Abril, Terça-feira

Tempo Temperatura Precipitação Vento Pressão Humidade
00:00 +23°C° 0 mm 1 m/s 710 mmHg 87%
01:00 +23°C° 0 mm 1 m/s 710 mmHg 88%
02:00 +23°C° 0 mm 1 m/s 709 mmHg 89%
03:00 +22°C° 0 mm 1 m/s 709 mmHg 90%
04:00 +22°C° 0 mm 1 m/s 709 mmHg 90%
05:00 +22°C° 0 mm 1 m/s 709 mmHg 91%
06:00 +23°C° 0 mm 1 m/s 710 mmHg 86%
07:00 +24°C° 0 mm 1 m/s 710 mmHg 82%
08:00 +23°C° 0 mm 0 m/s 710 mmHg 77%
09:00 +27°C° 0 mm 1 m/s 711 mmHg 68%
10:00 +29°C° 0 mm 2 m/s 711 mmHg 59%
11:00 +31°C° 0 mm 2 m/s 711 mmHg 50%
12:00 +32°C° 0 mm 2 m/s 710 mmHg 48%
13:00 +33°C° 0 mm 3 m/s 709 mmHg 46%
14:00 +34°C° 0 mm 3 m/s 708 mmHg 44%
15:00 +33°C° 0 mm 3 m/s 708 mmHg 46%
16:00 +33°C° 0 mm 3 m/s 708 mmHg 48%
17:00 +33°C° 0 mm 3 m/s 708 mmHg 50%
18:00 +29°C° 0 mm 2 m/s 708 mmHg 59%
19:00 +27°C° 0 mm 1 m/s 708 mmHg 68%
20:00 +25°C° 0 mm 1 m/s 708 mmHg 78%
21:00 +22°C° 0 mm 0 m/s 708 mmHg 81%
22:00 +22°C° 0 mm 0 m/s 709 mmHg 84%
23:00 +21°C° 0 mm 0 m/s 709 mmHg 88%

21 Abril, Quarta-feira

Tempo Temperatura Precipitação Vento Pressão Humidade
00:00 +21°C° 0 mm 0 m/s 708 mmHg 90%
01:00 +20°C° 0 mm 0 m/s 708 mmHg 93%
02:00 +20°C° 0 mm 0 m/s 708 mmHg 95%
03:00 +19°C° 0 mm 0 m/s 708 mmHg 96%
04:00 +19°C° 0 mm 0 m/s 707 mmHg 96%
05:00 +19°C° 0 mm 0 m/s 707 mmHg 97%
06:00 +20°C° 0 mm 0 m/s 708 mmHg 91%
07:00 +21°C° 0 mm 0 m/s 708 mmHg 85%
08:00 +22°C° 0 mm 0 m/s 708 mmHg 79%
09:00 +27°C° 0 mm 1 m/s 708 mmHg 67%
10:00 +30°C° 0 mm 2 m/s 708 mmHg 56%
11:00 +34°C° 0 mm 3 m/s 708 mmHg 45%
12:00 +35°C° 0 mm 3 m/s 707 mmHg 41%
13:00 +36°C° 0 mm 4 m/s 706 mmHg 38%
14:00 +37°C° 0 mm 4 m/s 705 mmHg 34%
15:00 +36°C° 0 mm 5 m/s 704 mmHg 40%
16:00 +34°C° 0 mm 5 m/s 704 mmHg 46%
17:00 +33°C° 0 mm 5 m/s 704 mmHg 52%
18:00 +30°C° 0 mm 4 m/s 704 mmHg 61%
19:00 +28°C° 0 mm 3 m/s 705 mmHg 71%
20:00 +25°C° 0 mm 2 m/s 706 mmHg 80%
21:00 +25°C° 0 mm 2 m/s 706 mmHg 83%
22:00 +25°C° 0 mm 2 m/s 706 mmHg 85%
23:00 +24°C° 0 mm 1 m/s 707 mmHg 88%

22 Abril, Quinta-feira

Tempo Temperatura Precipitação Vento Pressão Humidade
00:00 +24°C° 0 mm 1 m/s 706 mmHg 89%
01:00 +23°C° 0 mm 1 m/s 706 mmHg 91%
02:00 +23°C° 0 mm 1 m/s 706 mmHg 93%
03:00 +23°C° 0 mm 1 m/s 706 mmHg 92%
04:00 +23°C° 0 mm 1 m/s 706 mmHg 92%
05:00 +23°C° 0 mm 1 m/s 705 mmHg 92%
06:00 +24°C° 0 mm 1 m/s 706 mmHg 88%
07:00 +24°C° 0 mm 1 m/s 706 mmHg 84%
08:00 +25°C° 0 mm 1 m/s 706 mmHg 81%
09:00 +27°C° 0 mm 1 m/s 707 mmHg 71%
10:00 +30°C° 0 mm 1 m/s 707 mmHg 61%
11:00 +32°C° 0 mm 2 m/s 708 mmHg 51%
12:00 +32°C° 0 mm 2 m/s 707 mmHg 51%
13:00 +32°C° 0 mm 2 m/s 706 mmHg 51%
14:00 +32°C° 0 mm 2 m/s 706 mmHg 51%
15:00 +30°C° 0.4 mm 2 m/s 706 mmHg 63%
16:00 +28°C° 0.4 mm 2 m/s 705 mmHg 74%
17:00 +26°C° 0.4 mm 2 m/s 705 mmHg 86%
18:00 +25°C° 0.4 mm 2 m/s 706 mmHg 89%
19:00 +24°C° 0.4 mm 2 m/s 707 mmHg 93%
20:00 +23°C° 0.4 mm 2 m/s 708 mmHg 96%
21:00 +23°C° 0.3 mm 1 m/s 708 mmHg 96%
22:00 +23°C° 0.3 mm 1 m/s 708 mmHg 96%
23:00 +22°C° 0.3 mm 1 m/s 709 mmHg 97%

23 Abril, Sexta-feira

Tempo Temperatura Precipitação Vento Pressão Humidade
00:00 +22°C° 0.1 mm 1 m/s 708 mmHg 97%
01:00 +22°C° 0.1 mm 1 m/s 708 mmHg 97%
02:00 +22°C° 0.1 mm 1 m/s 708 mmHg 96%
03:00 +22°C° 0.4 mm 1 m/s 708 mmHg 97%
04:00 +22°C° 0.4 mm 1 m/s 708 mmHg 97%
05:00 +21°C° 0.4 mm 1 m/s 708 mmHg 98%
06:00 +22°C° 0.1 mm 1 m/s 708 mmHg 97%
07:00 +20°C° 0.1 mm 0 m/s 708 mmHg 97%
08:00 +20°C° 0.1 mm 0 m/s 709 mmHg 97%
09:00 +20°C° 0 mm 0 m/s 709 mmHg 94%
10:00 +23°C° 0 mm 1 m/s 709 mmHg 91%
11:00 +23°C° 0 mm 1 m/s 709 mmHg 87%
12:00 +24°C° 0 mm 1 m/s 708 mmHg 83%
13:00 +25°C° 0 mm 1 m/s 707 mmHg 78%
14:00 +26°C° 0 mm 1 m/s 706 mmHg 73%
15:00 +27°C° 0 mm 1 m/s 705 mmHg 71%
16:00 +27°C° 0 mm 1 m/s 705 mmHg 70%
17:00 +28°C° 0 mm 1 m/s 704 mmHg 68%
18:00 +26°C° 0 mm 1 m/s 705 mmHg 75%
19:00 +25°C° 0 mm 1 m/s 705 mmHg 82%
20:00 +23°C° 0 mm 1 m/s 705 mmHg 88%
21:00 +23°C° 0 mm 1 m/s 705 mmHg 90%
22:00 +23°C° 0 mm 1 m/s 706 mmHg 91%
23:00 +23°C° 0 mm 1 m/s 706 mmHg 92%
Mostrar mais

Necessitamos do seu Consentimento

A Meteoprog e os seus Fornecedores de Serviços podem armazenar e aceder a dados pessoais como cookies, identificadores do dispositivo ou outras tecnologias semelhantes existentes no seu dispositivo e processar estes dados para personalizar conteúdos e anúncios, assim como funcionalidades nas redes sociais e análise de tráfego.

  • Armazenar e/ou aceder a informações no seu dispositivo

    Os cookies, identificadores do dispositivo ou outras informações podem ser armazenados ou acedidos no seu dispositivo, para os fins acima indicados.

  • Anúncios e conteúdos personalizados, medição de anúncios e conteúdos, dados sobre o público-alvo e desenvolvimento de produtos

    Os anúncios e os conteúdos podem ser personalizados com base num perfil. Podem ser adicionados dados adicionais para uma maior personalização dos anúncios e dos conteúdos. A eficácia dos anúncios e dos conteúdos pode ser medida. Podem ser obtidas informações sobre o público que visualizou os anúncios e os conteúdos. Estes dados podem ser usados para desenvolver ou melhorar sistemas, softwares ou a experiência do utilizador.

Ao clicar em "Eu concordo”, permitirá o uso de cookies, identificadores do dispositivo e web beacons mencionados ou outras tecnologias semelhantes. As configurações do navegador do seu dispositivo podem ser alteradas.

Para certos fins, podem ser invocados interesses legítimos ao invés de consentimento. Pode ler mais informação sobre este assunto na nossa Política de Privacidade e Cookies.